Hourly Weather Bolshie Filipkovichi

Today, 19 June, Saturday

Time Temperature Precipitation Wind Pressure Humidity
00:00 +17°C° 0 mm 2 mps 754 mmHg 91%
01:00 +16°C° 0 mm 2 mps 754 mmHg 92%
02:00 +16°C° 0 mm 2 mps 754 mmHg 93%
03:00 +17°C° 0 mm 2 mps 754 mmHg 93%
04:00 +17°C° 0 mm 2 mps 754 mmHg 93%
05:00 +17°C° 0 mm 2 mps 754 mmHg 93%
06:00 +19°C° 0 mm 2 mps 754 mmHg 86%
07:00 +20°C° 0 mm 3 mps 754 mmHg 79%
08:00 +22°C° 0 mm 3 mps 754 mmHg 72%
09:00 +24°C° 0 mm 3 mps 754 mmHg 68%
10:00 +25°C° 0 mm 4 mps 754 mmHg 63%
11:00 +26°C° 0 mm 4 mps 754 mmHg 59%
12:00 +27°C° 0 mm 4 mps 754 mmHg 59%
13:00 +28°C° 0 mm 4 mps 753 mmHg 58%
14:00 +28°C° 0 mm 4 mps 753 mmHg 58%
15:00 +28°C° 0 mm 4 mps 753 mmHg 59%
16:00 +28°C° 0 mm 3 mps 753 mmHg 60%
17:00 +28°C° 0 mm 3 mps 752 mmHg 62%
18:00 +27°C° 0 mm 3 mps 752 mmHg 69%
19:00 +25°C° 0 mm 3 mps 752 mmHg 76%
20:00 +24°C° 0 mm 3 mps 752 mmHg 82%
21:00 +22°C° 0 mm 3 mps 752 mmHg 86%
22:00 +21°C° 0 mm 3 mps 752 mmHg 89%
23:00 +20°C° 0 mm 3 mps 752 mmHg 93%

Tomorrow, 20 June, Sunday

Time Temperature Precipitation Wind Pressure Humidity
00:00 +20°C° 0 mm 2 mps 752 mmHg 94%
01:00 +19°C° 0 mm 2 mps 752 mmHg 95%
02:00 +19°C° 0 mm 2 mps 752 mmHg 95%
03:00 +19°C° 0 mm 2 mps 752 mmHg 95%
04:00 +19°C° 0 mm 2 mps 752 mmHg 95%
05:00 +19°C° 0 mm 2 mps 752 mmHg 95%
06:00 +20°C° 0 mm 3 mps 752 mmHg 88%
07:00 +22°C° 0 mm 3 mps 752 mmHg 80%
08:00 +23°C° 0 mm 4 mps 752 mmHg 73%
09:00 +25°C° 0 mm 4 mps 752 mmHg 69%
10:00 +26°C° 0 mm 4 mps 752 mmHg 64%
11:00 +27°C° 0 mm 4 mps 752 mmHg 60%
12:00 +28°C° 0 mm 4 mps 751 mmHg 59%
13:00 +28°C° 0 mm 4 mps 751 mmHg 59%
14:00 +28°C° 0 mm 5 mps 751 mmHg 58%
15:00 +28°C° 0 mm 4 mps 751 mmHg 60%
16:00 +28°C° 0 mm 4 mps 751 mmHg 62%
17:00 +28°C° 0 mm 4 mps 750 mmHg 64%
18:00 +26°C° 0 mm 4 mps 750 mmHg 70%
19:00 +25°C° 0 mm 3 mps 750 mmHg 76%
20:00 +22°C° 0 mm 3 mps 750 mmHg 82%
21:00 +21°C° 0 mm 3 mps 750 mmHg 85%
22:00 +20°C° 0 mm 3 mps 750 mmHg 89%
23:00 +19°C° 0 mm 3 mps 750 mmHg 92%

Day after tomorrow, 21 June, Monday

Time Temperature Precipitation Wind Pressure Humidity
00:00 +19°C° 0 mm 3 mps 750 mmHg 92%
01:00 +19°C° 0 mm 3 mps 750 mmHg 92%
02:00 +19°C° 0 mm 3 mps 749 mmHg 92%
03:00 +19°C° 0 mm 3 mps 749 mmHg 91%
04:00 +19°C° 0 mm 3 mps 749 mmHg 91%
05:00 +19°C° 0 mm 3 mps 749 mmHg 90%
06:00 +20°C° 0 mm 4 mps 749 mmHg 83%
07:00 +22°C° 0 mm 4 mps 749 mmHg 76%
08:00 +23°C° 0 mm 5 mps 749 mmHg 69%
09:00 +26°C° 0 mm 5 mps 749 mmHg 65%
10:00 +27°C° 0 mm 5 mps 748 mmHg 61%
11:00 +28°C° 0 mm 5 mps 748 mmHg 57%
12:00 +29°C° 0 mm 5 mps 748 mmHg 56%
13:00 +29°C° 0 mm 5 mps 748 mmHg 55%
14:00 +30°C° 0 mm 6 mps 748 mmHg 55%
15:00 +30°C° 0 mm 5 mps 747 mmHg 57%
16:00 +30°C° 0 mm 5 mps 747 mmHg 59%
17:00 +30°C° 0 mm 5 mps 747 mmHg 62%
18:00 +28°C° 0 mm 4 mps 747 mmHg 67%
19:00 +26°C° 0 mm 4 mps 747 mmHg 72%
20:00 +25°C° 0 mm 4 mps 747 mmHg 77%
21:00 +23°C° 0 mm 4 mps 747 mmHg 81%
22:00 +22°C° 0 mm 3 mps 747 mmHg 84%
23:00 +21°C° 0 mm 3 mps 748 mmHg 88%

22 June, Tuesday

Time Temperature Precipitation Wind Pressure Humidity
00:00 +21°C° 0 mm 3 mps 748 mmHg 90%
01:00 +20°C° 0 mm 3 mps 748 mmHg 93%
02:00 +20°C° 0 mm 3 mps 748 mmHg 95%
03:00 +20°C° 0 mm 3 mps 748 mmHg 95%
04:00 +20°C° 0 mm 3 mps 748 mmHg 94%
05:00 +20°C° 0 mm 3 mps 748 mmHg 93%
06:00 +22°C° 0 mm 3 mps 748 mmHg 86%
07:00 +24°C° 0 mm 3 mps 748 mmHg 80%
08:00 +26°C° 0 mm 3 mps 748 mmHg 73%
09:00 +27°C° 0 mm 3 mps 748 mmHg 68%
10:00 +28°C° 0 mm 3 mps 748 mmHg 63%
11:00 +29°C° 0 mm 4 mps 748 mmHg 59%
12:00 +30°C° 0 mm 4 mps 748 mmHg 58%
13:00 +30°C° 0 mm 4 mps 748 mmHg 57%
14:00 +32°C° 0 mm 4 mps 748 mmHg 56%
15:00 +32°C° 0 mm 4 mps 748 mmHg 57%
16:00 +31°C° 0 mm 3 mps 748 mmHg 58%
17:00 +31°C° 0 mm 3 mps 748 mmHg 60%
18:00 +29°C° 0 mm 3 mps 748 mmHg 66%
19:00 +27°C° 0 mm 3 mps 748 mmHg 72%
20:00 +25°C° 0 mm 3 mps 748 mmHg 79%
21:00 +24°C° 0 mm 3 mps 748 mmHg 82%
22:00 +22°C° 0 mm 3 mps 748 mmHg 85%
23:00 +21°C° 0 mm 2 mps 749 mmHg 88%

23 June, Wednesday

Time Temperature Precipitation Wind Pressure Humidity
00:00 +20°C° 0 mm 2 mps 749 mmHg 90%
01:00 +19°C° 0 mm 2 mps 749 mmHg 91%
02:00 +19°C° 0 mm 2 mps 749 mmHg 92%
03:00 +19°C° 0 mm 2 mps 749 mmHg 92%
04:00 +19°C° 0 mm 2 mps 749 mmHg 92%
05:00 +20°C° 0 mm 2 mps 749 mmHg 91%
06:00 +22°C° 0 mm 3 mps 749 mmHg 85%
07:00 +25°C° 0 mm 3 mps 749 mmHg 78%
08:00 +27°C° 0 mm 3 mps 749 mmHg 71%
09:00 +28°C° 0 mm 3 mps 749 mmHg 66%
10:00 +30°C° 0 mm 3 mps 749 mmHg 60%
11:00 +32°C° 0 mm 4 mps 749 mmHg 54%
12:00 +33°C° 0 mm 4 mps 749 mmHg 52%
13:00 +33°C° 0 mm 4 mps 749 mmHg 50%
14:00 +34°C° 0 mm 5 mps 749 mmHg 49%
15:00 +34°C° 0 mm 4 mps 749 mmHg 52%
16:00 +33°C° 0 mm 4 mps 749 mmHg 55%
17:00 +33°C° 0 mm 4 mps 749 mmHg 58%
18:00 +30°C° 0 mm 4 mps 749 mmHg 66%
19:00 +29°C° 0 mm 3 mps 749 mmHg 73%
20:00 +27°C° 0 mm 3 mps 749 mmHg 80%
21:00 +26°C° 0 mm 3 mps 749 mmHg 83%
22:00 +24°C° 0 mm 3 mps 749 mmHg 86%
23:00 +22°C° 0 mm 3 mps 749 mmHg 89%

24 June, Thursday

Time Temperature Precipitation Wind Pressure Humidity
00:00 +23°C° 0 mm 2 mps 749 mmHg 90%
01:00 +21°C° 0 mm 2 mps 749 mmHg 92%
02:00 +21°C° 0 mm 2 mps 749 mmHg 93%
03:00 +21°C° 0 mm 2 mps 749 mmHg 92%
04:00 +21°C° 0 mm 2 mps 749 mmHg 92%
05:00 +21°C° 0 mm 2 mps 749 mmHg 91%
06:00 +24°C° 0 mm 3 mps 749 mmHg 85%
07:00 +26°C° 0 mm 3 mps 749 mmHg 79%
08:00 +28°C° 0 mm 4 mps 750 mmHg 73%
09:00 +29°C° 0 mm 3 mps 750 mmHg 67%
10:00 +30°C° 0 mm 3 mps 750 mmHg 61%
11:00 +31°C° 0 mm 3 mps 749 mmHg 55%
12:00 +33°C° 0 mm 3 mps 749 mmHg 53%
13:00 +34°C° 0 mm 3 mps 749 mmHg 51%
14:00 +34°C° 0 mm 4 mps 749 mmHg 49%
15:00 +34°C° 0 mm 4 mps 749 mmHg 52%
16:00 +34°C° 0 mm 4 mps 748 mmHg 55%
17:00 +33°C° 0 mm 4 mps 748 mmHg 58%
18:00 +30°C° 0 mm 3 mps 748 mmHg 66%
19:00 +29°C° 0 mm 3 mps 748 mmHg 73%
20:00 +27°C° 0 mm 3 mps 748 mmHg 81%
21:00 +26°C° 0 mm 3 mps 748 mmHg 83%
22:00 +25°C° 0 mm 2 mps 748 mmHg 86%
23:00 +24°C° 0 mm 2 mps 747 mmHg 88%
Show more